Time,TemperatureF,DewpointF,PressureIn,WindDirection,WindDirectionDegrees,WindSpeedMPH,WindSpeedGustMPH,Humidity,HourlyPrecipIn,Conditions,Clouds,dailyrainin,SoftwareType,DateUTC
2013-05-21 00:03:00,63.0,61.0,-100.00,ENE,65,1.0,2.0,94,0.00,,,-99.99,,2013-05-21 04:03:00,
2013-05-21 00:13:00,63.0,61.0,-100.00,WSW,240,1.0,3.0,94,0.00,,,-99.99,,2013-05-21 04:13:00,
2013-05-21 00:23:00,62.0,61.0,-100.00,North,10,0.0,1.0,94,0.00,,,-99.99,,2013-05-21 04:23:00,
2013-05-21 00:33:00,62.0,61.0,-100.00,North,10,0.0,1.0,95,0.00,,,-99.99,,2013-05-21 04:33:00,
2013-05-21 00:42:00,62.0,61.0,-100.00,NE,45,0.0,1.0,95,0.00,,,-99.99,,2013-05-21 04:42:00,
2013-05-21 00:52:00,62.0,61.0,-100.00,ENE,60,0.0,1.0,95,0.00,,,-99.99,,2013-05-21 04:52:00,
2013-05-21 01:02:00,62.0,61.0,-100.00,East,80,0.0,1.0,95,0.00,,,-99.99,,2013-05-21 05:02:00,
2013-05-21 01:12:00,62.0,60.0,-100.00,South,185,1.0,2.0,96,0.00,,,-99.99,,2013-05-21 05:12:00,
2013-05-21 01:22:00,61.0,60.0,-100.00,SSE,150,0.0,2.0,96,0.00,,,-99.99,,2013-05-21 05:22:00,
2013-05-21 01:32:00,61.0,60.0,-100.00,South,185,1.0,2.0,96,0.00,,,-99.99,,2013-05-21 05:32:00,
2013-05-21 01:42:00,61.0,60.0,-100.00,West,260,1.0,2.0,96,0.00,,,-99.99,,2013-05-21 05:42:00,
2013-05-21 01:52:00,61.0,60.0,-100.00,North,10,0.0,1.0,96,0.00,,,-99.99,,2013-05-21 05:52:00,
2013-05-21 02:02:00,61.0,60.0,-100.00,SSW,210,0.0,1.0,97,0.00,,,-99.99,,2013-05-21 06:02:00,
2013-05-21 02:12:00,60.0,60.0,-100.00,East,90,0.0,1.0,97,0.00,,,-99.99,,2013-05-21 06:12:00,
2013-05-21 02:21:00,60.0,60.0,-100.00,North,10,0.0,1.0,97,0.00,,,-99.99,,2013-05-21 06:21:00,
2013-05-21 02:32:00,60.0,60.0,-100.00,WSW,240,0.0,1.0,97,0.00,,,-99.99,,2013-05-21 06:32:00,
2013-05-21 02:42:00,60.0,59.0,-100.00,ESE,120,0.0,1.0,97,0.00,,,-99.99,,2013-05-21 06:42:00,
2013-05-21 02:52:00,60.0,59.0,-100.00,South,190,0.0,1.0,97,0.00,,,-99.99,,2013-05-21 06:52:00,
2013-05-21 03:01:00,60.0,59.0,-100.00,SSW,195,1.0,1.0,97,0.00,,,-99.99,,2013-05-21 07:01:00,
2013-05-21 03:11:00,60.0,59.0,-100.00,North,0,0.0,1.0,97,0.00,,,-99.99,,2013-05-21 07:11:00,
2013-05-21 03:22:00,60.0,59.0,-100.00,East,100,0.0,1.0,98,0.00,,,-99.99,,2013-05-21 07:22:00,
2013-05-21 03:32:00,60.0,59.0,-100.00,SSE,160,0.0,0.0,98,0.00,,,-99.99,,2013-05-21 07:32:00,
2013-05-21 03:42:00,60.0,59.0,-100.00,NE,55,1.0,1.0,98,0.00,,,-99.99,,2013-05-21 07:42:00,
2013-05-21 03:52:00,60.0,59.0,-100.00,South,170,1.0,2.0,98,0.00,,,-99.99,,2013-05-21 07:52:00,
2013-05-21 04:02:00,59.0,59.0,-100.00,NNE,30,0.0,1.0,98,0.00,,,-99.99,,2013-05-21 08:02:00,
2013-05-21 04:11:00,59.0,59.0,-100.00,South,190,0.0,1.0,98,0.00,,,-99.99,,2013-05-21 08:11:00,
2013-05-21 04:21:00,59.0,59.0,-100.00,ENE,75,0.0,1.0,98,0.00,,,-99.99,,2013-05-21 08:21:00,
2013-05-21 04:31:00,59.0,59.0,-100.00,West,260,1.0,2.0,98,0.00,,,-99.99,,2013-05-21 08:31:00,
2013-05-21 04:42:00,59.0,58.0,-100.00,West,270,1.0,2.0,98,0.00,,,-99.99,,2013-05-21 08:42:00,
2013-05-21 04:52:00,59.0,58.0,-100.00,South,170,0.0,1.0,98,0.00,,,-99.99,,2013-05-21 08:52:00,
2013-05-21 05:01:00,58.0,58.0,-100.00,ENE,65,1.0,1.0,98,0.00,,,-99.99,,2013-05-21 09:01:00,
2013-05-21 05:11:00,58.0,58.0,-100.00,East,100,0.0,1.0,98,0.00,,,-99.99,,2013-05-21 09:11:00,
2013-05-21 05:21:00,58.0,58.0,-100.00,East,80,0.0,1.0,98,0.00,,,-99.99,,2013-05-21 09:21:00,
2013-05-21 05:33:00,59.0,58.0,-100.00,East,80,0.0,1.0,98,0.00,,,-99.99,,2013-05-21 09:33:00,
2013-05-21 05:42:00,58.0,58.0,-100.00,East,90,0.0,1.0,98,0.00,,,-99.99,,2013-05-21 09:42:00,
2013-05-21 05:52:00,59.0,58.0,-100.00,South,190,2.0,4.0,98,0.00,,,-99.99,,2013-05-21 09:52:00,
2013-05-21 06:03:00,59.0,59.0,-100.00,East,90,1.0,2.0,98,0.00,,,-99.99,,2013-05-21 10:03:00,
2013-05-21 06:12:00,60.0,59.0,-100.00,ESE,115,1.0,3.0,98,0.00,,,-99.99,,2013-05-21 10:12:00,
2013-05-21 06:22:00,60.0,59.0,-100.00,ENE,75,1.0,3.0,98,0.00,,,-99.99,,2013-05-21 10:22:00,
2013-05-21 10:21:00,62.0,62.0,-100.00,ENE,60,0.0,4.0,98,0.00,,,-99.99,,2013-05-21 14:21:00,
2013-05-21 10:32:00,63.0,62.0,-100.00,South,190,1.0,2.0,98,0.00,,,-99.99,,2013-05-21 14:32:00,
2013-05-21 10:42:00,64.0,63.0,-100.00,South,190,4.0,8.0,98,0.00,,,-99.99,,2013-05-21 14:42:00,
2013-05-21 10:51:00,64.0,63.0,-100.00,South,190,4.0,8.0,98,0.00,,,-99.99,,2013-05-21 14:51:00,
2013-05-21 11:01:00,64.0,62.0,-100.00,SW,215,2.0,6.0,92,0.00,,,-99.99,,2013-05-21 15:01:00,
2013-05-21 11:11:00,65.0,62.0,-100.00,NE,35,2.0,4.0,89,0.00,,,-99.99,,2013-05-21 15:11:00,
2013-05-21 11:21:00,65.0,61.0,-100.00,East,80,2.0,7.0,88,0.01,,,-99.99,,2013-05-21 15:21:00,
2013-05-21 11:33:00,65.0,62.0,-100.00,ENE,75,1.0,4.0,89,0.00,,,-99.99,,2013-05-21 15:33:00,
2013-05-21 11:42:00,66.0,63.0,-100.00,ENE,70,2.0,7.0,89,0.00,,,-99.99,,2013-05-21 15:42:00,
2013-05-21 11:52:00,65.0,62.0,-100.00,ENE,65,3.0,9.0,87,0.00,,,-99.99,,2013-05-21 15:52:00,
2013-05-21 12:03:00,67.0,63.0,-100.00,ESE,105,1.0,7.0,86,0.00,,,-99.99,,2013-05-21 16:03:00,
2013-05-21 12:13:00,69.0,63.0,-100.00,East,90,2.0,6.0,81,0.00,,,-99.99,,2013-05-21 16:13:00,
2013-05-21 12:23:00,68.0,62.0,-100.00,East,85,3.0,8.0,81,0.00,,,-99.99,,2013-05-21 16:23:00,
2013-05-21 12:32:00,68.0,62.0,-100.00,East,90,1.0,6.0,81,0.00,,,-99.99,,2013-05-21 16:32:00,
2013-05-21 12:42:00,69.0,62.0,-100.00,ESE,110,1.0,6.0,79,0.00,,,-99.99,,2013-05-21 16:42:00,
2013-05-21 12:52:00,71.0,63.0,-100.00,ENE,75,1.0,6.0,77,0.00,,,-99.99,,2013-05-21 16:52:00,
2013-05-21 13:02:00,70.0,63.0,-100.00,East,85,4.0,9.0,77,0.00,,,-99.99,,2013-05-21 17:02:00,
2013-05-21 13:12:00,70.0,63.0,-100.00,East,95,4.0,9.0,78,0.00,,,-99.99,,2013-05-21 17:12:00,
2013-05-21 13:23:00,69.0,62.0,-100.00,East,95,3.0,10.0,78,0.00,,,-99.99,,2013-05-21 17:23:00,
2013-05-21 13:33:00,68.0,61.0,-100.00,East,85,4.0,12.0,79,0.00,,,-99.99,,2013-05-21 17:33:00,
2013-05-21 13:43:00,67.0,60.0,-100.00,East,90,4.0,9.0,78,0.00,,,-99.99,,2013-05-21 17:43:00,
2013-05-21 13:52:00,67.0,60.0,-100.00,East,85,2.0,12.0,78,0.00,,,-99.99,,2013-05-21 17:52:00,
2013-05-21 14:02:00,67.0,59.0,-100.00,SSE,160,2.0,12.0,76,0.00,,,-99.99,,2013-05-21 18:02:00,
2013-05-21 14:13:00,65.0,58.0,-100.00,ENE,65,3.0,9.0,77,0.00,,,-99.99,,2013-05-21 18:13:00,
2013-05-21 14:22:00,63.0,57.0,-100.00,East,90,4.0,7.0,78,0.00,,,-99.99,,2013-05-21 18:22:00,
2013-05-21 14:32:00,62.0,56.0,-100.00,ENE,75,4.0,12.0,80,0.00,,,-99.99,,2013-05-21 18:32:00,
2013-05-21 14:42:00,62.0,56.0,-100.00,East,90,3.0,12.0,80,0.00,,,-99.99,,2013-05-21 18:42:00,
2013-05-21 14:52:00,62.0,56.0,-100.00,East,90,2.0,12.0,79,0.00,,,-99.99,,2013-05-21 18:52:00,
2013-05-21 15:02:00,62.0,55.0,-100.00,ENE,75,3.0,14.0,79,0.00,,,-99.99,,2013-05-21 19:02:00,
2013-05-21 15:11:00,62.0,55.0,-100.00,ESE,115,4.0,10.0,79,0.00,,,-99.99,,2013-05-21 19:11:00,
2013-05-21 15:22:00,61.0,54.0,-100.00,ENE,75,3.0,10.0,78,0.00,,,-99.99,,2013-05-21 19:22:00,
2013-05-21 15:32:00,62.0,55.0,-100.00,East,90,4.0,9.0,78,0.00,,,-99.99,,2013-05-21 19:32:00,
2013-05-21 15:42:00,59.0,53.0,-100.00,ENE,75,6.0,15.0,81,0.00,,,-99.99,,2013-05-21 19:42:00,
2013-05-21 15:52:00,58.0,53.0,-100.00,East,100,2.0,9.0,82,0.00,,,-99.99,,2013-05-21 19:52:00,
2013-05-21 16:03:00,58.0,53.0,-100.00,East,100,2.0,14.0,83,0.00,,,-99.99,,2013-05-21 20:03:00,
2013-05-21 16:11:00,57.0,52.0,-100.00,East,90,3.0,9.0,84,0.00,,,-99.99,,2013-05-21 20:11:00,
2013-05-21 16:22:00,56.0,52.0,-100.00,East,80,2.0,12.0,86,0.00,,,-99.99,,2013-05-21 20:22:00,
2013-05-21 16:32:00,55.0,51.0,-100.00,East,95,4.0,14.0,86,0.00,,,-99.99,,2013-05-21 20:32:00,
2013-05-21 16:42:00,55.0,51.0,-100.00,East,85,6.0,15.0,87,0.00,,,-99.99,,2013-05-21 20:42:00,
2013-05-21 16:52:00,55.0,51.0,-100.00,ENE,75,7.0,16.0,87,0.00,,,-99.99,,2013-05-21 20:52:00,
2013-05-21 17:02:00,54.0,51.0,-100.00,ENE,70,6.0,19.0,87,0.00,,,-99.99,,2013-05-21 21:02:00,
2013-05-21 17:11:00,54.0,51.0,-100.00,East,90,6.0,14.0,88,0.00,,,-99.99,,2013-05-21 21:11:00,
2013-05-21 17:22:00,54.0,50.0,-100.00,ENE,65,7.0,19.0,87,0.00,,,-99.99,,2013-05-21 21:22:00,
2013-05-21 17:33:00,53.0,50.0,-100.00,ENE,70,6.0,17.0,87,0.00,,,-99.99,,2013-05-21 21:33:00,
2013-05-21 17:43:00,53.0,50.0,-100.00,ENE,70,6.0,16.0,88,0.00,,,-99.99,,2013-05-21 21:43:00,
2013-05-21 17:53:00,53.0,50.0,-100.00,East,95,2.0,12.0,88,0.00,,,-99.99,,2013-05-21 21:53:00,
2013-05-21 18:02:00,53.0,49.0,-100.00,East,80,3.0,9.0,89,0.00,,,-99.99,,2013-05-21 22:02:00,
2013-05-21 18:13:00,52.0,49.0,-100.00,East,90,6.0,16.0,90,0.00,,,-99.99,,2013-05-21 22:13:00,
2013-05-21 18:23:00,53.0,50.0,-100.00,ENE,75,2.0,9.0,89,0.00,,,-99.99,,2013-05-21 22:23:00,
2013-05-21 18:33:00,52.0,49.0,-100.00,East,85,2.0,9.0,90,0.00,,,-99.99,,2013-05-21 22:33:00,
2013-05-21 18:42:00,52.0,49.0,-100.00,East,80,4.0,10.0,90,0.00,,,-99.99,,2013-05-21 22:42:00,
2013-05-21 18:52:00,52.0,49.0,-100.00,East,80,6.0,13.0,90,0.00,,,-99.99,,2013-05-21 22:52:00,
2013-05-21 19:02:00,52.0,49.0,-100.00,East,90,2.0,6.0,90,0.00,,,-99.99,,2013-05-21 23:02:00,
2013-05-21 19:12:00,51.0,49.0,-100.00,ENE,70,7.0,11.0,90,0.00,,,-99.99,,2013-05-21 23:12:00,
2013-05-21 19:22:00,51.0,49.0,-100.00,East,95,3.0,13.0,91,0.00,,,-99.99,,2013-05-21 23:22:00,
2013-05-21 19:32:00,51.0,49.0,-100.00,East,95,2.0,10.0,91,0.00,,,-99.99,,2013-05-21 23:32:00,
2013-05-21 19:42:00,51.0,49.0,-100.00,East,95,2.0,7.0,92,0.00,,,-99.99,,2013-05-21 23:42:00,
2013-05-21 19:52:00,51.0,49.0,-100.00,East,95,1.0,6.0,92,0.00,,,-99.99,,2013-05-21 23:52:00,
2013-05-21 20:01:00,51.0,49.0,-100.00,East,90,2.0,7.0,92,0.00,,,-99.99,,2013-05-22 00:01:00,
2013-05-21 20:11:00,51.0,49.0,-100.00,East,100,4.0,11.0,93,0.00,,,-99.99,,2013-05-22 00:11:00,
2013-05-21 20:21:00,51.0,49.0,-100.00,East,80,2.0,12.0,93,0.00,,,-99.99,,2013-05-22 00:21:00,
2013-05-21 20:32:00,51.0,49.0,-100.00,East,90,1.0,6.0,93,0.00,,,-99.99,,2013-05-22 00:32:00,
2013-05-21 20:42:00,51.0,49.0,-100.00,ENE,60,1.0,6.0,93,0.00,,,-99.99,,2013-05-22 00:42:00,
2013-05-21 20:51:00,51.0,49.0,-100.00,East,90,3.0,7.0,93,0.00,,,-99.99,,2013-05-22 00:51:00,
2013-05-21 21:01:00,50.0,49.0,-100.00,SE,125,4.0,11.0,93,0.00,,,-99.99,,2013-05-22 01:01:00,
2013-05-21 21:11:00,51.0,49.0,-100.00,East,95,1.0,7.0,94,0.00,,,-99.99,,2013-05-22 01:11:00,
2013-05-21 21:22:00,50.0,49.0,-100.00,East,95,2.0,6.0,94,0.00,,,-99.99,,2013-05-22 01:22:00,
2013-05-21 21:32:00,50.0,49.0,-100.00,East,85,1.0,7.0,94,0.00,,,-99.99,,2013-05-22 01:32:00,
2013-05-21 21:42:00,50.0,49.0,-100.00,East,85,2.0,7.0,94,0.00,,,-99.99,,2013-05-22 01:42:00,
2013-05-21 21:52:00,50.0,49.0,-100.00,ENE,60,2.0,9.0,95,0.00,,,-99.99,,2013-05-22 01:52:00,
2013-05-21 22:02:00,50.0,49.0,-100.00,ENE,60,1.0,7.0,95,0.00,,,-99.99,,2013-05-22 02:02:00,
2013-05-21 22:12:00,50.0,49.0,-100.00,East,80,4.0,9.0,95,0.00,,,-99.99,,2013-05-22 02:12:00,
2013-05-21 22:22:00,50.0,49.0,-100.00,ENE,70,2.0,8.0,95,0.00,,,-99.99,,2013-05-22 02:22:00,
2013-05-21 22:32:00,50.0,49.0,-100.00,ENE,60,1.0,9.0,95,0.00,,,-99.99,,2013-05-22 02:32:00,
2013-05-21 22:42:00,50.0,49.0,-100.00,East,80,4.0,9.0,95,0.00,,,-99.99,,2013-05-22 02:42:00,
2013-05-21 22:52:00,50.0,49.0,-100.00,ENE,60,1.0,4.0,96,0.00,,,-99.99,,2013-05-22 02:52:00,
2013-05-21 23:01:00,50.0,49.0,-100.00,ENE,75,2.0,7.0,96,0.00,,,-99.99,,2013-05-22 03:01:00,
2013-05-21 23:11:00,50.0,49.0,-100.00,ESE,105,2.0,7.0,96,0.00,,,-99.99,,2013-05-22 03:11:00,
2013-05-21 23:22:00,50.0,49.0,-100.00,East,90,4.0,7.0,96,0.00,,,-99.99,,2013-05-22 03:22:00,
2013-05-21 23:33:00,50.0,49.0,-100.00,NE,50,2.0,11.0,96,0.00,,,-99.99,,2013-05-22 03:33:00,
2013-05-21 23:43:00,50.0,49.0,-100.00,ENE,65,6.0,14.0,96,0.00,,,-99.99,,2013-05-22 03:43:00,
2013-05-21 23:53:00,50.0,49.0,-100.00,NE,50,4.0,9.0,96,0.00,,,-99.99,,2013-05-22 03:53:00,